Regional Weather Roundup
Issued by NWS

Home | Current Version | Previous Version | Text Only | Print | Product List | Glossary On
Versions: 1 2 3 4 5 6 7 8 9 10 11 12 13 14 15 16 17 18 19 20 21 22 23 24 25 26 27 28 29 30 31 32 33 34 35 36 37 38 39 40 41 42 43 44 45 46 47 48 49 50
000
ASUS46 KSEW 271910
RWRWA

WASHINGTON REGIONAL WEATHER ROUNDUP
NATIONAL WEATHER SERVICE SEATTLE WA
1200 PM PDT SAT AUG 27 2016

NOTE:"FAIR" INDICATES FEW OR NO CLOUDS BELOW 12,000 FEET WITH NO
SIGNIFICANT WEATHER AND/OR OBSTRUCTIONS TO VISIBILITY.

WAZ505-507>509-272000-
SEATTLE, TACOMA, EVERETT, AND VICINITY

CITY           SKY/WX    TMP DP  RH WIND       PRES   REMARKS
EVERETT        PTSUNNY   64  54  69 S21G28    29.87S
BOEING FIELD   CLOUDY    66  55  67 S12       29.88R
RENTON         CLOUDY    65  57  75 VRB7      29.88R
SEATAC AIRPORT CLOUDY    64  55  72 SW8       29.89R
JBLM-MCCHORD   MOSUNNY   72  58  61 SW22      29.88R
PUYALLUP       CLOUDY    72  59  64 SW12G18   29.89S
BREMERTON      CLOUDY    64  55  72 SW15      29.89F
JBLM-FT LEWIS  MOSUNNY   70  58  64 S15G24    29.89R
TACOMA NARROWS PTSUNNY   68  55  63 SW15G23   29.88S
$$

WAZ001-503-506-510-514-515-272000-
NORTH INTERIOR

CITY           SKY/WX    TMP DP  RH WIND       PRES   REMARKS
BELLINGHAM     CLOUDY    64  55  72 S14G22    29.81F
FRIDAY HARBOR  CLOUDY    66  54  65 E7        29.82R
EASTSOUND      PTSUNNY   64  55  72 S9        29.80R
PORT ANGELES   SUNNY     64  54  69 NW12      29.85R
EDIZ HOOK      FAIR      63  54  74 W13       29.85R
PORT TOWNSEND  PTSUNNY   68  57  68 E10       29.85R
NAS WHIDBEY    PTSUNNY   67  53  61 SW6       29.89R
ARLINGTON      CLOUDY    66  50  55 S13       29.88R
BURLINGTON     CLOUDY    66  57  72 S13G21    29.85R
$$

WAZ020-022-039-040-504-511-512-272000-
SOUTHWEST INTERIOR

CITY           SKY/WX    TMP DP  RH WIND       PRES   REMARKS
SHELTON        CLOUDY    64  56  75 SW18G24   29.87S
OLYMPIA        PTSUNNY   66  54  65 W15G26    29.91R
CHEHALIS       CLOUDY    68  59  73 NW9       29.93R
KELSO          CLOUDY    67  56  67 W6        29.96S
VANCOUVER      SUNNY     73  53  49 VRB5      29.93F
SCAPPOOSE, OR  SUNNY     73  53  49 VRB6      29.93S
PORTLAND, OR   MOSUNNY   73  52  47 CALM      29.94S
$$

WAZ021-516-517-272000-
WASHINGTON COAST

CITY           SKY/WX    TMP DP  RH WIND       PRES   REMARKS
FORKS          CLOUDY    60  57  89 SW10      29.91R
HOQUIAM        CLOUDY    59  59 100 SW14      29.95R FOG
ASTORIA, OR    CLOUDY    60  56  86 S14       29.98R FOG
$$

WAZ019-023-024-040-518-519-272000-
CASCADE MOUNTAINS AND COLUMBIA GORGE

CITY           SKY/WX    TMP DP  RH WIND       PRES   REMARKS
STAMPEDE PASS  CLOUDY    60  48  64 W13G26    29.92R
TROUTDALE, OR  SUNNY     76  53  44 CALM      29.93S
THE DALLES, OR SUNNY     84  44  24 NW24G31   29.80S
$$

WAZ026-027-041>044-520-521-272000-
EAST SLOPES

CITY           SKY/WX    TMP DP  RH WIND       PRES   REMARKS
OMAK           PTSUNNY   76  44  32 SE5       29.68S
WENATCHEE      CLOUDY    76  43  30 CALM      29.72S
ELLENSBURG     CLOUDY    77  48  35 NW16      29.78F
YAKIMA         CLOUDY    77  49  37 CALM      29.77S
$$

WAZ028-034-035-272000-
COLUMBIA BASIN

CITY           SKY/WX    TMP DP  RH WIND       PRES   REMARKS
EPHRATA        CLOUDY    79  47  32 SW10      29.71F
MOSES LAKE     CLOUDY    84  42  22 SW17G24   29.72S
PASCO          MOSUNNY   91  44  19 SW15      29.72F
HERMISTON, OR  SUNNY     90  43  19 W22G37    29.76F
$$

WAZ036>038-272000-
NORTHEAST WASHINGTON

CITY           SKY/WX    TMP DP  RH WIND       PRES   REMARKS
SPOKANE GEIGER PTSUNNY   80  39  23 SW21G31   29.76F
SPOKANE FELTS  PTSUNNY   83  41  22 SW14G28   29.76F
FAIRCHILD AFB  PTSUNNY   80  41  25 SW18G25   29.76F
COEURDALENE,ID MOSUNNY   82  43  24 SW18      29.74F
DEER PARK      CLOUDY    80  38  22 SW10G24   29.75F
$$

WAZ029>033-272000-
SOUTHEAST WASHINGTON

CITY           SKY/WX    TMP DP  RH WIND       PRES   REMARKS
PULLMAN        SUNNY     83  40  21 W25G37    29.84F
LEWISTON, ID   SUNNY     87  41  19 NE5       29.77F
WALLA WALLA    SUNNY     88  40  18 SW21G29   29.78F
PENDLETON, OR  SUNNY     88  39  17 W26G32    29.80F
$$



USA.gov is the U.S. government's official web portal to all federal, state and local government web resources and services.